Location: Rowland
(34.5359°N, 79.2929°W)
Time: 11:56:03
(UTC+00:00)

SR - Visible Passes

Search period start: 05 October 2022 00:00
Search period end: 15 October 2022 00:00
Orbit: 574 x 879 km, 66.7° (Epoch: 04 October)

Date Brightness Start Highest point End Pass type
(mag) Time Alt. Az. Time Alt. Az. Time Alt. Az.
05 Oct ? 01:35:35 10° SW 01:38:51 34° SW 01:38:51 34° SW visible
05 Oct ? 10:21:00 10° NNW 10:26:02 45° ENE 10:30:37 10° SE visible
06 Oct ? 00:45:21 10° SSW 00:51:07 69° ESE 00:52:39 49° NE visible
06 Oct ? 02:29:40 10° W 02:32:13 17° WNW 02:32:13 17° WNW visible
06 Oct ? 09:31:25 10° N 09:35:31 22° NE 09:39:20 10° ESE visible
06 Oct ? 23:55:56 10° S 00:01:05 34° ESE 00:06:19 10° NE visible
07 Oct ? 01:37:48 10° WSW 01:43:06 34° NW 01:45:54 23° N visible
07 Oct ? 08:42:57 10° NNE 08:44:44 12° NE 08:46:28 10° ENE visible
07 Oct ? 10:22:26 10° NNW 10:27:39 90° WNW 10:32:21 10° SSE visible
08 Oct ? 00:46:52 10° SW 00:52:41 66° WNW 00:58:35 10° NNE visible
08 Oct ? 02:34:21 10° WNW 02:35:50 11° NW 02:37:18 10° NNW visible
08 Oct ? 09:32:25 10° NNW 09:37:20 41° ENE 09:41:50 10° SE visible
08 Oct ? 23:56:44 10° SSW 00:02:29 63° ESE 00:08:20 10° NNE visible
09 Oct ? 01:40:43 10° W 01:45:00 20° NW 01:49:17 10° N visible
09 Oct ? 08:42:55 10° N 08:46:46 20° NE 08:50:23 10° E visible
09 Oct ? 10:24:14 10° NW 10:29:04 43° WSW 10:33:28 10° S visible
09 Oct ? 23:07:27 10° SSE 23:12:28 30° ESE 23:17:33 10° NE visible
10 Oct ? 00:49:00 10° SW 00:54:24 37° WNW 00:59:51 10° N visible
10 Oct ? 07:55:05 10° NNE 07:55:57 10° NE 07:56:50 10° NE visible
10 Oct ? 09:34:02 11° NNW 09:38:58 81° ENE 09:43:39 10° SSE visible
10 Oct ? 23:58:11 10° SSW 00:04:01 73° WNW 00:09:56 10° NNE visible
11 Oct ? 01:44:55 10° WNW 01:47:04 12° NW 01:49:12 10° NNW visible
11 Oct ? 08:47:44 34° NNE 08:48:37 37° ENE 08:53:00 10° SE visible
11 Oct ? 10:27:17 13° WNW 10:30:16 21° WSW 10:33:45 10° SSW visible
11 Oct ? 23:08:08 10° S 23:13:50 57° ESE 23:19:37 10° NE visible
12 Oct ? 00:51:47 10° WSW 00:56:15 22° NW 01:00:45 10° N visible
12 Oct ? 08:01:20 10° E 08:01:20 10° E 08:01:23 10° E visible
12 Oct ? 09:40:52 46° SW 09:40:52 46° SW 09:44:50 10° S visible
13 Oct ? 00:00:11 10° SW 00:05:41 41° WNW 00:11:14 10° NNE visible
13 Oct ? 08:54:13 14° SSE 08:54:13 14° SSE 08:54:54 10° SSE visible
13 Oct ? 23:09:27 10° SSW 23:15:20 80° WNW 23:21:15 10° NNE visible
14 Oct ? 00:55:39 10° WNW 00:58:16 13° NW 01:00:54 10° NNW visible
